Weather in Korkino

Russia / Chelyabinsk Oblast     54°53′32″N   61°23′34″E
temp.,
°C
wind,
m/s
gust,
m/s
humid.,
%
clouds,
%
prec.,
mm/h
press.,
hPa
HPBL,
m
25 february, thu
thu2523:00−22n81493100 0.4 1019911
02:00−24n71393100 0.1 1022721
05:00−25n71392100 0.2 1024560
08:00−28nnw6129288 0.0 1027313
11:00−24nnw6119144 0.0 1029340
14:00−19nnw47890 0.0 1028459
17:00−18nw24900 0.0 1029144
20:00−23wnw22910 0.0 102920
26 february, fri
fri2623:00−25wsw12900 0.0 103020
02:00−25s22920 0.0 102919
05:00−27ssw22880 0.0 103019
08:00−28s22840 0.0 102919
11:00−23s24900 0.0 1029230
14:00−20s359277 0.0 1027320
17:00−21sse469482 0.0 1027270
20:00−27sse349719 0.0 102735
27 february, sat
sat2723:00−28s34979 0.0 102755
02:00−28s349841 0.0 102464
05:00−28sse349932 0.0 102466
08:00−28sse3610082 0.0 1021101
11:00−22sse6109691 0.1 1019341
14:00−18sse71094100 0.1 1016499
17:00−15sse61295100 1.0 1014643
20:00−12ese51195100 1.2 1011474
28 february, sun
sun2823:00−9se51095100 1.6 1009377
02:00−8sse4895100 0.9 1007359
05:00−8se3696100 1.6 1006232
08:00−9se2296100 0.4 100536
11:00−6ese1193100 0.8 1005194
14:00−5ene1193100 0.5 1005242
17:00−4ne1295100 1.1 1005215
20:00−7nne239790 0.3 100747
1 march, mon
mon123:00−10nne369695 0.3 1009147
02:00−12n4696100 0.2 1010183
05:00−14n479594 0.4 1011230
08:00−16n369690 0.2 1013196
11:00−15n349390 0.3 1014241
14:00−12nne2290100 0.1 1014313
17:00−12ne1191100 0.1 1014215
20:00−14ese1197100 0.1 101420